Flag for U.S.A. Weather past 2 weeks in Cambridge, Massachusetts, U.S.A.

Now
70 °F

Passing clouds.


Feels Like: 65 °F
Forecast: 66 / 80 °F
Wind: No wind

Location: Logan International Airport

Current Time: Jul 28, 2014 at 12:59:34 AM

Latest Report: Jul 27, 2014 at 11:54 PM


Visibility: 7 mi

Pressure: 29.68 "Hg

Humidity: 93%

Dew point: 68 °F

Location of CambridgeLocation

Historic Weather in Cambridge — Graph

°F

Cambridge temperature yesterday

Maximum temperature yesterday: 78 °F (at 10:54 AM)
Minimum temperature yesterday: 67 °F (at 3:54 AM)
Average temperature yesterday: 71 °F

Past Weeks' High & Low Weather Summary

 TemperatureHumidityPressure
High91 °F (Jul 23, 2:54 PM)97% (Jul 14, 8:54 PM)30.27 "Hg (Jul 14, 8:54 PM)
Low61 °F (Jul 20, 3:54 AM)36% (Jul 26, 2:54 PM)29.67 "Hg (Jul 27, 7:54 PM)
Average72 °F74%29.97 "Hg
* Reported Jul 12 11:54 PM — Jul 27 11:54 PM, Cambridge, Weather by CustomWeather, © 2014

Note: Actual official high and low records may vary slightly from our data, if they occured in-between our weather recording intervals... More about our weather records

Advertising

Cambridge weather history for previous 24 hours

 ConditionsComfort  
Time TempWeatherWind HumidityBarometerVisibility
11:54 PM
Jul 27
70 °FPassing clouds.No wind93%29.68 "Hg7 mi
10:54 PM71 °FPassing clouds.7 mph90%29.69 "Hg8 mi
9:54 PM71 °FPartly cloudy.7 mph90%29.68 "Hg8 mi
8:54 PM72 °FMostly cloudy.8 mph91%29.70 "Hg10 mi
7:54 PM73 °FCloudy.8 mph84%29.67 "Hg10 mi
6:54 PM75 °FBroken clouds.12 mph82%29.68 "Hg10 mi
5:54 PM75 °FBroken clouds.12 mph85%29.68 "Hg10 mi
4:58 PM73 °FPartly sunny.15 mph89%29.70 "Hg10 mi
4:00 PM72 °FLight rain. Mostly cloudy.7 mph94%29.72 "Hg8 mi
2:54 PM71 °FOvercast.12 mph90%29.73 "Hg10 mi
1:54 PM71 °FOvercast.10 mph90%29.76 "Hg10 mi
1:02 PM72 °FLight rain. Fog.14 mph88%29.77 "Hg5 mi
12:54 PM71 °FLight rain. Fog.9 mph93%29.77 "Hg2 mi
12:00 PM70 °FHeavy rain. Fog.16 mph88%29.79 "Hg1 mi
10:54 AM78 °FBroken clouds.17 mph66%29.78 "Hg10 mi
9:54 AM76 °FBroken clouds.10 mph74%29.80 "Hg10 mi
8:54 AM73 °FPartly sunny.13 mph79%29.82 "Hg10 mi
7:54 AM71 °FOvercast.10 mph84%29.82 "Hg10 mi
6:54 AM69 °FPartly sunny.8 mph90%29.83 "Hg10 mi
5:54 AM67 °FPassing clouds.6 mph90%29.83 "Hg10 mi
4:54 AM67 °FLow clouds.7 mph90%29.85 "Hg10 mi
3:54 AM67 °FPassing clouds.5 mph87%29.85 "Hg10 mi
2:54 AM68 °FPassing clouds.9 mph87%29.86 "Hg10 mi
1:54 AM68 °FPassing clouds.10 mph84%29.88 "Hg10 mi
12:54 AM70 °FClear.13 mph79%29.89 "Hg10 mi
Weather by CustomWeather, © 2014

See weather overviewHow to use our weather pages